Location: Banksville Park
(38.5557°N, 75.1182°W)
Time: 18:57:13
(UTC+00:00)

SAR-Lupe-1 - Pass Details

Date: 22 January 2021
Orbit: 482 x 484 km, 98.2° (Epoch: 05 March)

Event Time Altitude Azimuth Distance (km) Brightness Sun altitude
Rises 09:33:56 0° 120° (ESE) 2,539 8.6 -31.0°
Reaches altitude 10° 09:37:07 10° 88° (E) 1,665 7.7 -30.4°
Maximum altitude 09:38:30 12° 66° (ENE) 1,550 7.3 -30.1°
Drops below altitude 10° 09:39:53 10° 43° (NE) 1,669 7.2 -29.8°
Enters shadow 09:40:52 - 30° (NNE) 1,875 7.3 -29.6°
